Weather History for Midlothian, TX

Change the Weather History Date:

Wednesday, December 25, 2013

  Actual Average (KRBD) Record (KRBD)
Temperature  
Mean Temperature 45 °F -  
Max Temperature 58 °F 53 °F 64 °F (2008)
Min Temperature 32 °F 35 °F 19 °F (2004)
Degree Days  
Heating Degree Days 20    
Moisture  
Dew Point 34 °F    
Average Humidity 72    
Maximum Humidity 92    
Minimum Humidity 44    
Precipitation  
Precipitation 0.00 in - - ()
Sea Level Pressure  
Sea Level Pressure 30.33 in    
Wind  
Wind Speed 6 mph (West)    
Max Wind Speed 16 mph    
Max Gust Speed 18 mph    
Visibility 10 miles    
Events      
Averages and records for this station are not official NWS values.
T = Trace of Precipitation, MM = Missing Value Source: NWS Daily Summary

Daily Weather History Graph

Daily Weather History Graph

Search for Another Location

Airport:

Trip Planner

Search our weather history database for the weather conditions in past years. The results will help you decide how hot, cold, wet, or windy it might be!

Date:

Astronomy

Dec. 25, 2013 Rise Set
Actual Time 7:27 AM CST 5:28 PM CST
Civil Twilight 7:00 AM CST 5:55 PM CST
Nautical Twilight 6:29 AM CST 6:26 PM CST
Astronomical Twilight 5:59 AM CST 6:56 PM CST
Moon 12:14 AM CST (12/25) 12:16 PM CST (12/25)
Length of Visible Light 10h 55m
Length of Day
10h 01m
Waning Gibbous, 48% of the Moon is Illuminated
Dec 25
Waning Gibbous
Jan 1
New
Jan 7
First Quarter
Jan 15
Full
Jan 23
Last Quarter

Hourly Weather History & Observations

Time (CST) Temp. Windchill Dew Point Humidity Pressure Visibility Wind Dir Wind Speed Gust Speed Precip Events Conditions
12:15 AM 36.5 °F 32.7 °F 29.5 °F 76% 30.28 in 10.0 mi SE 4.6 mph - N/A   Clear
12:35 AM 35.2 °F 31.2 °F 29.3 °F 79% 30.28 in 10.0 mi SSE 4.6 mph - N/A   Clear
12:55 AM 35.6 °F 31.7 °F 29.3 °F 78% 30.28 in 10.0 mi SSE 4.6 mph - N/A   Clear
1:15 AM 34.7 °F 29.6 °F 29.1 °F 80% 30.28 in 10.0 mi SSE 5.8 mph - N/A   Clear
1:35 AM 34.2 °F 28.2 °F 28.4 °F 79% 30.28 in 10.0 mi SSE 6.9 mph - N/A   Clear
1:55 AM 34.7 °F 30.6 °F 28.4 °F 78% 30.28 in 10.0 mi SE 4.6 mph - N/A   Clear
2:15 AM 34.3 °F 30.2 °F 28.4 °F 79% 30.28 in 10.0 mi ESE 4.6 mph - N/A   Clear
2:35 AM 33.8 °F 28.6 °F 28.4 °F 81% 30.29 in 10.0 mi ESE 5.8 mph - N/A   Clear
2:55 AM 34.0 °F 29.8 °F 28.6 °F 81% 30.29 in 10.0 mi ESE 4.6 mph - N/A   Clear
3:15 AM 33.3 °F 27.9 °F 28.6 °F 83% 30.29 in 10.0 mi SSE 5.8 mph - N/A   Clear
3:35 AM 33.8 °F 30.8 °F 28.9 °F 82% 30.29 in 10.0 mi ESE 3.5 mph - N/A   Clear
3:55 AM 32.4 °F 29.1 °F 28.8 °F 87% 30.30 in 10.0 mi East 3.5 mph - N/A   Clear
4:15 AM 32.9 °F 28.5 °F 29.1 °F 86% 30.30 in 10.0 mi ESE 4.6 mph - N/A   Clear
4:35 AM 33.1 °F 27.7 °F 29.3 °F 86% 30.29 in 10.0 mi SE 5.8 mph - N/A   Clear
4:55 AM 32.9 °F 28.5 °F 28.9 °F 85% 30.29 in 10.0 mi SE 4.6 mph - N/A   Clear
5:15 AM 32.9 °F 29.8 °F 28.9 °F 85% 30.29 in 10.0 mi SE 3.5 mph - N/A   Clear
5:35 AM 32.5 °F 29.3 °F 28.9 °F 87% 30.29 in 10.0 mi SE 3.5 mph - N/A   Clear
5:55 AM 32.2 °F 28.9 °F 28.9 °F 88% 30.29 in 10.0 mi SE 3.5 mph - N/A   Clear
6:15 AM 32.0 °F 27.5 °F 28.6 °F 87% 30.30 in 10.0 mi SE 4.6 mph - N/A   Clear
6:35 AM 32.9 °F 29.8 °F 28.9 °F 85% 30.30 in 10.0 mi SSE 3.5 mph - N/A   Clear
6:55 AM 32.0 °F - 28.4 °F 87% 30.32 in 10.0 mi Calm Calm - N/A   Scattered Clouds
7:15 AM 32.0 °F 27.5 °F 30.0 °F 92% 30.33 in 10.0 mi WNW 4.6 mph - N/A   Mostly Cloudy
7:35 AM 32.9 °F 29.8 °F 30.2 °F 90% 30.34 in 10.0 mi West 3.5 mph - N/A   Overcast
7:55 AM 34.3 °F 30.2 °F 30.9 °F 87% 30.34 in 10.0 mi West 4.6 mph - N/A   Overcast
8:15 AM 35.4 °F - 31.1 °F 84% 30.35 in 10.0 mi Calm Calm - N/A   Overcast
8:35 AM 37.0 °F 33.3 °F 31.8 °F 81% 30.34 in 10.0 mi South 4.6 mph - N/A   Overcast
8:55 AM 37.0 °F 34.5 °F 32.0 °F 82% 30.34 in 10.0 mi South 3.5 mph - N/A   Overcast
9:15 AM 38.3 °F 33.9 °F 33.4 °F 83% 30.35 in 10.0 mi South 5.8 mph - N/A   Mostly Cloudy
9:35 AM 42.1 °F 36.1 °F 35.6 °F 78% 30.35 in 10.0 mi South 10.4 mph - N/A   Mostly Cloudy
9:55 AM 44.6 °F 39.7 °F 36.7 °F 74% 30.35 in 10.0 mi South 9.2 mph - N/A   Scattered Clouds
10:15 AM 45.9 °F 40.4 °F 37.0 °F 71% 30.35 in 10.0 mi South 11.5 mph - N/A   Clear
10:35 AM 47.5 °F - 37.6 °F 69% 30.35 in 10.0 mi South 10.4 mph - N/A   Clear
10:55 AM 48.9 °F - 38.5 °F 67% 30.35 in 10.0 mi South 11.5 mph - N/A   Clear
11:15 AM 50.0 °F - 38.5 °F 65% 30.35 in 10.0 mi South 10.4 mph - N/A   Clear
11:35 AM 51.4 °F - 39.4 °F 63% 30.34 in 10.0 mi South 8.1 mph - N/A   Clear
11:55 AM 52.9 °F - 40.1 °F 62% 30.34 in 10.0 mi South 11.5 mph - N/A   Clear
12:15 PM 54.3 °F - 41.0 °F 61% 30.33 in 10.0 mi South 10.4 mph - N/A   Scattered Clouds
12:35 PM 55.4 °F - 41.2 °F 59% 30.32 in 10.0 mi SW 9.2 mph - N/A   Scattered Clouds
12:55 PM 56.7 °F - 41.7 °F 57% 30.31 in 10.0 mi WSW 13.8 mph 18.4 mph N/A   Scattered Clouds
1:15 PM 56.1 °F - 41.2 °F 57% 30.30 in 10.0 mi WSW 8.1 mph - N/A   Scattered Clouds
1:35 PM 55.8 °F - 41.0 °F 58% 30.30 in 10.0 mi West 4.6 mph - N/A   Scattered Clouds
1:55 PM 56.7 °F - 41.0 °F 56% 30.29 in 10.0 mi West 4.6 mph - N/A   Scattered Clouds
2:15 PM 55.8 °F - 40.3 °F 56% 30.29 in 10.0 mi West 6.9 mph - N/A   Mostly Cloudy
2:35 PM 58.3 °F - 38.7 °F 48% 30.29 in 10.0 mi Calm Calm - N/A   Mostly Cloudy
2:55 PM 58.6 °F - 38.1 °F 46% 30.29 in 10.0 mi NW 9.2 mph - N/A   Overcast
3:15 PM 57.6 °F - 37.6 °F 47% 30.29 in 10.0 mi NNW 5.8 mph - N/A   Mostly Cloudy
3:35 PM 58.6 °F - 37.0 °F 45% 30.30 in 10.0 mi WNW 5.8 mph - N/A   Scattered Clouds
3:55 PM 57.4 °F - 35.4 °F 44% 30.30 in 10.0 mi WNW 10.4 mph - N/A   Scattered Clouds
4:15 PM 56.7 °F - 37.9 °F 50% 30.30 in 10.0 mi NNW 12.7 mph 18.4 mph N/A   Mostly Cloudy
4:35 PM 53.6 °F - 37.4 °F 54% 30.31 in 10.0 mi North 11.5 mph - N/A   Scattered Clouds
4:55 PM 51.6 °F - 35.4 °F 54% 30.32 in 10.0 mi North 16.1 mph - N/A   Clear
5:15 PM 49.3 °F - 35.4 °F 59% 30.34 in 10.0 mi North 13.8 mph - N/A   Clear
5:35 PM 48.4 °F - 35.2 °F 60% 30.35 in 10.0 mi North 9.2 mph 18.4 mph N/A   Mostly Cloudy
5:55 PM 48.2 °F - 34.7 °F 60% 30.35 in 10.0 mi NNW 9.2 mph - N/A   Overcast
6:15 PM 48.4 °F - 34.3 °F 58% 30.35 in 10.0 mi NNW 9.2 mph - N/A   Overcast
6:35 PM 48.2 °F - 33.8 °F 58% 30.36 in 10.0 mi NNW 8.1 mph - N/A   Overcast
6:55 PM 48.0 °F - 33.4 °F 57% 30.37 in 10.0 mi NNW 8.1 mph - N/A   Overcast
7:15 PM 48.2 °F - 33.8 °F 58% 30.37 in 10.0 mi NNW 10.4 mph - N/A   Overcast
7:35 PM 47.7 °F - 34.0 °F 59% 30.37 in 10.0 mi North 9.2 mph - N/A   Overcast
7:55 PM 46.9 °F - 34.0 °F 61% 30.38 in 10.0 mi NNW 10.4 mph - N/A   Overcast
8:15 PM 44.8 °F 38.3 °F 33.1 °F 64% 30.39 in 10.0 mi NNW 13.8 mph 17.3 mph N/A   Scattered Clouds
8:35 PM 42.4 °F 35.3 °F 33.4 °F 70% 30.40 in 10.0 mi NNW 13.8 mph - N/A   Clear
8:55 PM 41.0 °F 34.7 °F 33.8 °F 76% 30.40 in 10.0 mi NNW 10.4 mph - N/A   Clear
9:15 PM 39.4 °F 32.7 °F 33.3 °F 79% 30.41 in 10.0 mi NNW 10.4 mph - N/A   Clear
9:35 PM 39.2 °F 35.0 °F 32.9 °F 78% 30.41 in 10.0 mi NNW 5.8 mph - N/A   Clear
9:55 PM 38.3 °F 32.5 °F 32.9 °F 81% 30.41 in 10.0 mi NNW 8.1 mph - N/A   Clear
10:15 PM 38.1 °F 32.3 °F 32.9 °F 81% 30.42 in 7.0 mi NNW 8.1 mph - N/A   Clear
10:35 PM 37.4 °F 32.1 °F 32.5 °F 83% 30.42 in 7.0 mi NNW 6.9 mph - N/A   Clear
10:55 PM 36.5 °F 31.0 °F 32.2 °F 84% 30.42 in 7.0 mi NNW 6.9 mph - N/A   Clear
11:15 PM 36.7 °F 31.2 °F 32.5 °F 85% 30.42 in 7.0 mi NNW 6.9 mph - N/A   Clear
11:35 PM 36.5 °F 31.8 °F 32.2 °F 84% 30.42 in 7.0 mi NNW 5.8 mph - N/A   Clear
11:55 PM 35.8 °F 31.9 °F 32.0 °F 86% 30.42 in 7.0 mi NW 4.6 mph - N/A   Clear